Location: Góry Miechowskie
(50.3599°N, 20.1803°E)
Time: 16:07:25
(UTC+00:00)

A-11 Canister half - Pass Details

Date: 14 September 2024
Orbit: 1515 x 1684 km, 47.2° (Epoch: 07 October)

Event Time Altitude Azimuth Distance (km) Brightness Sun altitude
Rises 22:59:30 0° 285° (WNW) 4,665 11.6 -36.4°
Reaches altitude 10° 23:02:41 10° 280° (W) 3,678 11.0 -36.4°
Enters shadow 23:05:04 20° 273° (W) 2,986 10.4 -36.3°
Maximum altitude 23:11:17 46° 211° (SSW) 1,962 - -36.1°
Drops below altitude 10° 23:19:59 10° 143° (SE) 3,717 - -35.8°
Sets 23:23:13 0° 137° (SE) 4,718 - -35.7°
